Volver al catálogo

STARLINK-2533

ActivoComunicacionesVLEO
NORAD 48294·PAYLOAD·🇺🇸 United States

Lanzado Apr 29, 2021 desde Cape Canaveral Space Force Station

Loading…

Próximos Pases (próximas 24 horas)

TLE

ActualizadoSource: CelesTrak SupGP

Época: Sep 14, 2026, 13:55 UTC

1 48294C 21036U   26257.58034722  .00018031  00000+0  57976-3 0  2578
2 48294  53.1582 276.3057 0001254  79.5353 259.7420 15.31697811    19

Sigue STARLINK-2533 en tiempo real con AllMySat

Download on the App Store